Location: SE Lincoln, NE
(40.7805°N, 96.6275°W)
Time: 05:09:30
(UTC-05:00)

CZ-4C R/B - Pass Details

Date: 15 May 2021
Orbit: 609 x 1393 km, 63.4° (Epoch: 20 June)

Event Time Altitude Azimuth Distance (km) Brightness Sun altitude
Rises 21:07:02 0° 327° (NNW) 3,842 7.0 -5.7°
Reaches altitude 10° 21:09:35 10° 332° (NNW) 2,991 6.1 -6.1°
Maximum altitude 21:16:50 59° 51° (NE) 1,430 3.3 -7.3°
Drops below altitude 10° 21:25:08 10° 130° (SE) 3,418 4.7 -8.6°
Enters shadow 21:25:12 10° 130° (SE) 3,439 4.7 -8.6°
